SCP
0 0 0 0 0 0 0 0 0 0 0 0 0 0 0 0 0 0 0 0 0 0 0 0 0 0 0 0 0 0 0 0 0 0 0 0 0 0 0 0 0 0 0 0 0 0 0 0 -0 -0 -0 -0 0 0
0 0 0 0 0 0 0 0 0 0 0 0 0 0 0 0 0 0 0 0 0 0 0 0 0 0 0 0 0 0 0 0 0 0 0 0 0 0 0 0 0 0 0 0 0 0 0 0 0 0 -0 -0 -0 -0
0 0 0 0 0 0 0 0 0 0 0 0 0 0 0 0 0 0 0 0 0 0 0 0 0 0 0 0 0 0 0 0 0 0 0 0 0 0 0 0 0 0 0 0 0 0 0 0 0 0 0 0 -0 -0
0 0 0 0 0 0 0 0 0 0 0 0 0 0 0 0 0 0 0 0 0 0 0 0 0 -0 -0 0 0 0 0 0 0 0 0 0 0 0 0 0 0 0 0 0 0 0 0 0 0 0 0 0 0 -0
0 0 0 0 0 0 0 0 0 0 0 0 0 0 0 0 0 0 0 0 0 0 0 0 0 -0 0 0 0 0 0 0 0 0 0 0 0 0 0 0 0 0 0 0 0 0 0 0 -0 0 0 0 0 0
0 0 0 0 0 0 0 0 0 0 0 0 0 0 0 0 0 0 0 0 0 0 0 0 0 0 0 0 0 0 0 0 0 0 0 0 0 0 0 0 0 0 0 0 0 0 0 0 0 0 -0 0 0 0
0 0 0 0 0 0 0 0 0 0 0 0 0 0 0 0 0 0 0 0 0 0 0 0 0 0 0 0 0 0 0 0 0 0 0 0 0 0 0 -0 0 0 0 0 0 0 0 -0 0 0 -0 -0 0 0
0 0 0 0 0 0 0 0 0 0 0 0 0 0 0 0 0 0 0 0 0 0 0 0 0 0 0 0 0 0 0 0 0 0 0 0 0 0 0 -0 0 0 0 -0 0 0 0 -0 0 0 0 -0 0 0
0 0 0 0 0 0 0 0 0 0 0 0 0 0 0 0 0 0 0 0 0 0 0 0 0 0 0 0 0 0 0 0 0 0 0 0 0 0 0 0 0 0 0 0 0 0 0 0 -0 0 0 0 -0 -0
0 0 0 0 0 0 0 0 0 0 0 0 0 0 0 0 0 0 0 0 0 0 0 0 0 0 0 0 0 0 0 0 0 0 0 0 0 0 0 0 0 0 0 0 0 0 0 0 0 0 0 0 0 0
0 0 0 0 0 0 0 0 0 0 0 0 0 0 0 0 0 0 0 0 0 0 0 0 0 0 0 0 0 0 0 0 0 0 0 0 0 0 0 0 0 0 0 0 0 0 0 0 0 0 0 0 0 0
0 0 0 0 0 0 0 0 0 0 0 0 0 0 0 0 0 0 0 0 0 0 0 0 0 0 0 0 0 0 0 0 0 0 0 0 0 0 0 0 0 0 0 0 0 0 0 0 0 0 0 0 0 0
-0 0 0 0 0 0 0 0 0 -0 -0 -0 0 0 0 0 0 0 0 0 0 0 0 0 0 0 0 0 0 0 0 0 0 0 0 0 0 0 0 0 -0 0 0 0 0 0 0 0 0 0 0 0 0 0
0 0 0 0 0 0 0 -0 0 0 0 0 0 0 0 0 0 0 0 0 0 0 0 0 0 0 0 0 0 0 0 0 0 0 0 0 -0 -0 -0 -0 0 0 0 0 0 0 0 0 0 0 0 0 0 0
0 0 0 0 0 0 -0 0 0 0 0 0 0 0 0 0 0 0 0 0 0 0 0 0 0 0 0 0 0 0 0 0 0 0 0 -0 0 0 -0 0 -0 0 0 0 0 0 0 0 0 0 0 0 0 0
0 0 0 0 0 0 0 0 0 0 0 0 0 0 0 0 0 0 0 0 0 0 0 0 0 0 0 0 0 0 0 0 0 -0 -0 -0 0 0 -0 0 0 0 0 0 0 0 0 0 0 0 0 0 0 0
0 0 0 0 0 0 0 0 0 0 0 0 0 0 0 0 0 0 0 0 0 0 0 0 0 0 0 0 0 0 0 0 -0 -0 -0 -0 0 0 -0 0 0 0 0 0 0 0 0 0 0 0 0 0 0 0
0 0 0 0 0 0 0 0 0 0 0 0 0 0 0 0 0 0 0 0 0 0 0 0 0 0 0 0 0 0 -0 -0 -0 -0 0 0 0 -0 0 0 0 0 0 0 0 0 0 0 0 0 0 0 0 0
0 0 0 -0 0 0 0 0 0 0 0 0 0 0 0 0 0 0 0 0 0 0 0 0 0 0 0 0 -0 -0 -0 -0 -0 -0 0 0 -0 0 -0 0 0 0 0 0 0 0 0 0 0 0 0 0 0 0
0 0 -0 -0 0 0 0 0 0 0 0 0 0 0 0 0 0 0 0 0 0 0 0 0 -0 0 0 0 0 -0 -0 -0 -0 0 0 0 0 -0 0 0 -0 -0 0 0 0 0 0 0 0 0 0 0 0 0
0 0 0 0 0 0 0 0 0 0 0 0 0 -0 0 -0 0 0 0 -0 0 0 0 -0 0 0 0 0 -0 -0 -0 0 -0 0 0 0 0 0 0 0 0 0 0 0 0 0 0 0 0 0 0 0 0 0
0 0 0 0 0 0 0 0 0 -0 -0 -0 0 0 -0 -0 -0 -0 -0 -0 0 0 0 0 -0 0 -0 -0 0 0 0 -0 0 0 0 0 0 0 -0 -0 -0 -0 -0 0 -0 -0 0 0 0 0 0 0 0 0
0 0 0 0 0 0 0 -0 -0 -0 0 0 0 -0 -0 0 0 -0 -0 -0 0 0 -0 -0 -0 -0 -0 -0 -0 -0 0 0 0 0 0 -0 0 -0 -0 0 0 0 -0 0 -0 0 0 0 0 0 0 0 0 0
0 0 0 0 0 0 -0 -0 0 0 0 0 -0 -0 -0 -0 0 -0 -0 0 0 0 0 0 0 0 0 0 0 0 0 0 0 0 0 0 -0 0 0 0 -0 -0 -0 -0 -0 0 0 0 0 0 0 0 0 0
0 0 0 0 -0 0 0 0 0 0 0 -0 -0 -0 0 0 0 -0 -0 -0 -0 0 0 -0 -0 0 0 0 0 0 -0 0 0 0 0 0 0 0 0 0 -0 0 0 -0 0 0 0 0 0 0 0 0 0 0
0 0 0 0 0 0 0 0 0 0 0 0 0 -0 0 0 0 0 0 -0 -0 -0 0 0 -0 0 0 0 0 0 0 0 0 0 0 0 0 0 0 0 -0 -0 -0 0 -0 -0 -0 0 0 -0 -0 0 0 0
0 0 0 0 0 0 0 0 0 0 0 0 0 0 0 0 0 0 0 -0 0 -0 -0 -0 -0 0 0 0 0 0 0 0 0 0 0 0 0 0 0 -0 -0 0 -0 -0 -0 -0 -0 -0 -0 -0 0 0 0 0
0 0 0 0 0 0 0 0 0 0 0 0 0 0 0 0 0 0 0 0 0 0 0 0 -0 -0 0 0 0 0 0 0 0 0 0 0 0 0 0 -0 -0 -0 -0 -0 -0 -0 -0 -0 -0 -0 -0 0 0 0
0 0 0 0 0 0 0 0 0 0 0 0 0 -0 0 0 0 0 0 -0 0 0 0 0 0 0 0 0 0 0 0 0 0 0 0 0 0 0 0 0 -0 -0 -0 -0 -0 -0 -0 -0 -0 0 -0 -0 0 0
0 0 0 0 0 0 0 0 0 0 0 -0 -0 -0 -0 0 0 0 -0 -0 -0 -0 -0 -0 0 0 0 0 0 0 0 0 0 0 0 0 0 0 0 0 -0 -0 -0 -0 -0 -0 -0 -0 0 -0 -0 -0 -0 -0
0 0 0 0 0 0 0 0 0 -0 -0 -0 -0 -0 -0 0 0 0 -0 -0 0 0 0 -0 -0 -0 -0 -0 -0 0 0 0 0 0 0 0 0 0 0 0 0 0 -0 -0 -0 0 0 0 0 0 0 0 -0 -0
0 0 0 0 0 -0 -0 -0 -0 -0 -0 -0 -0 -0 0 0 0 -0 -0 0 0 0 0 -0 -0 -0 -0 -0 -0 -0 0 0 0 0 0 0 0 0 0 0 0 0 -0 0 0 0 -0 0 0 0 0 0 0 0
-0 -0 0 0 0 0 -0 0 0 0 0 0 0 0 0 -0 0 -0 -0 0 0 0 0 -0 -0 -0 -0 0 -0 -0 -0 -0 0 0 0 0 0 0 0 0 0 0 -0 0 0 0 0 -0 0 0 0 0 0 0
Wind_Speed_500mb
44 42 40 39 39 38 37 35 34 33 32 32 29 29 26 19 16 23 17 17 22 22 48 50 46 41 28 15 9 15 18 3 6 6 5 4 4 4 8 9 15 8 8 6 4 7 9 5 11 14 19 30 34 36
45 44 42 41 40 38 36 34 33 33 32 30 28 27 26 23 18 21 21 21 23 36 36 45 58 66 59 54 44 17 11 8 8 4 2 1 6 6 7 8 4 7 10 8 8 8 14 25 19 20 23 26 30 27
45 45 44 43 41 40 38 36 34 32 31 30 27 26 23 19 15 17 21 24 24 26 54 34 21 14 25 22 26 19 12 17 15 14 1 2 10 4 7 11 10 8 9 11 12 11 14 21 30 32 29 25 25 20
48 46 46 45 43 41 39 38 35 34 32 29 27 25 24 20 12 16 25 21 24 16 14 17 16 18 4 17 36 50 37 35 31 7 8 7 7 16 8 14 19 23 22 19 26 40 43 38 37 24 20 25 25 16
49 48 47 46 44 42 41 39 37 35 32 29 26 24 21 19 13 19 29 35 35 26 9 29 65 69 40 23 38 62 56 42 42 13 11 8 8 6 14 10 25 42 22 11 10 18 17 30 32 22 19 22 22 20
44 44 44 44 43 42 39 39 38 35 32 29 26 23 22 13 12 13 11 6 19 43 13 7 23 50 47 27 24 39 46 35 30 18 15 15 27 10 8 11 19 33 37 40 28 17 26 29 28 21 25 24 24 18
44 44 43 40 41 41 40 38 36 33 31 26 22 19 19 12 17 19 9 1 8 27 11 9 14 11 26 17 7 10 28 21 24 16 18 32 22 21 7 37 28 32 38 43 39 34 33 38 20 13 23 24 24 18
40 41 42 41 39 35 34 33 31 28 26 24 20 20 22 21 26 35 38 32 21 10 10 6 10 19 11 6 5 10 12 20 19 15 10 10 11 17 13 56 44 44 48 52 52 52 59 48 35 25 29 26 20 12
45 38 37 38 39 37 34 27 28 28 21 19 19 23 23 24 21 29 20 24 29 25 8 10 6 7 12 6 6 5 12 8 13 12 10 12 13 15 38 61 45 47 34 27 14 20 30 44 51 36 36 27 20 14
51 47 43 43 42 37 28 22 23 20 20 18 21 15 13 14 22 11 11 15 18 19 19 12 18 12 10 15 10 12 10 7 6 14 10 9 18 63 79 74 75 65 52 47 33 28 24 30 36 39 40 26 19 19
50 54 48 44 38 34 28 26 23 18 19 19 18 14 14 18 19 10 11 14 16 7 13 11 24 19 12 9 7 10 7 6 6 7 8 8 12 31 54 63 73 79 67 60 56 48 30 24 33 38 32 24 19 20
50 50 47 44 43 26 30 30 28 27 18 13 8 16 20 14 11 7 7 8 8 8 9 9 14 15 10 15 12 9 7 6 12 6 6 8 15 39 51 56 52 52 46 48 49 41 38 34 32 31 25 21 19 22
47 44 41 40 35 21 26 29 33 29 23 16 11 14 12 11 12 11 16 8 8 11 12 13 9 11 12 13 10 7 9 11 5 7 8 9 34 50 63 53 47 26 23 30 37 40 33 30 27 22 19 21 20 21
38 39 45 39 31 26 29 33 32 25 18 9 8 10 8 9 9 10 10 5 9 8 9 16 7 11 10 9 5 8 9 7 8 9 11 13 56 70 58 32 25 14 15 29 46 42 36 28 21 18 18 17 18 13
34 34 29 22 21 27 30 33 29 25 16 8 6 8 12 13 3 3 5 9 8 6 1 5 9 10 7 6 7 7 7 11 9 8 9 44 57 73 57 34 15 8 25 36 39 36 28 20 14 12 18 18 19 18
13 9 18 17 23 26 28 33 28 26 13 12 12 8 8 6 17 18 22 23 11 21 11 5 5 5 12 7 11 14 8 10 4 9 37 45 60 67 57 24 25 37 33 35 30 22 16 10 5 8 11 16 24 22
18 16 13 19 22 23 29 31 21 12 9 10 10 21 16 12 16 14 14 17 23 16 6 4 7 14 5 8 10 8 8 7 26 43 50 52 71 65 40 17 27 34 26 23 22 14 9 5 3 6 9 13 22 25
21 17 17 21 24 33 28 23 13 14 13 15 10 25 26 26 27 29 34 35 28 19 14 8 9 7 9 10 11 7 13 33 41 42 55 66 58 30 12 8 15 17 17 13 10 7 5 6 9 11 12 13 17 23
22 21 22 23 32 33 17 20 15 7 19 12 22 30 24 27 39 46 35 33 38 35 12 11 11 9 12 18 25 34 32 30 39 54 65 38 15 13 13 11 8 7 10 7 6 9 12 11 11 12 13 13 16 22
23 21 18 15 29 15 9 9 15 10 11 14 19 20 18 24 30 29 34 33 29 17 14 11 14 32 32 35 39 45 48 37 38 54 50 18 8 7 5 3 6 9 12 13 12 11 12 12 12 13 13 13 18 22
23 23 20 20 25 18 6 10 11 11 9 12 13 17 14 20 28 31 34 31 29 14 17 35 41 53 57 61 66 67 52 39 42 31 38 37 17 8 4 5 8 10 11 10 11 12 13 15 12 13 14 14 16 18
20 24 20 29 9 14 10 15 10 6 9 13 13 17 14 13 19 17 18 20 14 32 42 54 66 62 52 52 60 53 42 33 28 40 33 27 22 15 10 3 5 8 10 12 13 12 21 18 12 13 16 18 18 19
20 21 12 11 9 12 4 9 8 8 6 7 5 6 7 8 7 18 12 16 22 35 44 46 52 48 49 48 38 37 27 27 23 26 23 28 23 16 12 11 6 9 15 17 17 18 27 17 16 18 21 21 23 25
13 12 7 8 8 4 5 8 9 8 8 6 5 7 6 6 13 10 8 10 15 13 15 15 16 22 28 29 32 34 36 37 28 29 28 27 20 20 12 10 9 9 12 20 22 21 28 20 19 21 23 25 26 27
8 9 8 6 8 6 7 6 8 6 7 9 6 8 5 4 5 6 5 1 3 4 5 14 19 21 21 21 20 18 15 23 30 25 22 22 22 24 22 19 15 12 13 21 26 27 27 23 20 24 23 27 29 29
4 12 11 13 8 8 7 5 6 9 6 6 8 8 4 4 6 4 3 11 14 23 34 31 23 20 20 17 16 13 9 13 21 19 20 22 23 22 23 25 21 16 17 13 21 29 29 24 24 25 24 26 27 31
4 8 9 12 7 7 8 13 13 7 6 4 3 3 4 5 5 5 21 53 46 38 25 20 20 17 20 11 9 9 8 8 17 24 20 21 23 23 23 21 13 7 16 14 18 26 32 30 29 31 28 30 29 33
8 5 7 5 10 12 6 4 4 4 5 4 3 3 3 3 5 11 38 54 53 20 7 6 7 11 6 5 7 6 7 7 6 12 15 17 18 18 19 17 13 13 19 15 16 23 35 37 36 33 32 32 32 34
7 6 8 8 10 9 11 8 7 8 5 3 3 2 5 5 13 34 56 38 32 28 21 10 13 12 7 2 2 6 8 13 10 8 7 13 19 18 22 25 25 26 27 23 19 22 29 36 40 35 33 36 36 40
4 11 5 6 6 7 9 20 11 13 15 11 8 7 2 10 18 38 40 42 45 42 36 31 28 22 22 18 11 2 9 8 11 15 16 14 10 19 29 35 31 33 38 35 31 32 32 33 39 42 41 42 40 45
5 12 7 8 7 12 14 14 15 15 16 12 13 9 3 6 27 25 32 35 41 44 38 31 24 21 18 18 22 17 9 9 14 17 13 18 14 14 29 41 39 40 42 41 36 35 41 42 42 45 43 41 41 41
9 11 5 4 6 11 16 5 6 6 8 6 6 0 7 5 2 8 31 34 40 48 48 41 28 23 22 24 19 17 21 17 14 27 28 23 25 24 34 43 41 47 43 43 39 36 39 40 43 44 45 45 46 42
8 9 7 7 6 5 6 8 4 7 3 5 7 6 5 5 8 7 23 29 34 40 44 43 32 26 22 18 32 22 25 21 8 17 26 28 25 27 33 48 45 51 45 45 43 39 38 37 36 42 44 46 45 42
Wind_Direction_500mb
281 283 285 289 292 295 295 296 294 295 299 303 308 309 308 302 265 249 246 239 253 253 268 273 268 269 264 260 264 316 329 223 298 4 340 4 264 328 288 280 291 284 304 280 256 258 282 31 340 359 314 308 328 337
280 281 284 285 287 289 292 291 288 289 294 297 302 304 303 303 291 259 252 261 252 258 263 273 278 275 264 260 270 262 242 315 291 280 228 285 260 247 273 287 196 260 230 293 264 270 313 297 277 297 290 290 317 328
276 278 279 280 281 283 284 286 285 286 288 292 294 295 297 300 300 277 258 240 267 286 289 271 273 292 278 241 252 228 223 228 238 235 293 272 248 176 245 247 264 257 254 251 296 252 283 295 288 293 286 282 304 326
273 274 276 277 278 278 279 279 280 281 283 286 286 287 290 294 290 270 269 262 230 263 275 292 304 263 298 292 254 227 248 267 243 245 262 221 227 213 236 261 256 268 298 264 271 286 289 283 266 273 265 287 298 322
270 271 271 273 275 275 274 274 275 278 282 283 284 284 287 298 289 272 269 262 232 218 284 297 294 288 284 271 267 250 258 241 235 248 232 232 228 249 248 255 256 245 239 215 249 260 281 287 296 281 271 286 296 313
268 267 267 271 273 273 271 272 273 275 278 280 282 275 282 295 283 296 298 339 240 214 254 274 291 287 296 285 260 252 241 217 206 204 239 238 237 222 261 265 236 222 229 237 248 257 294 281 295 273 277 287 301 308
268 266 268 267 267 270 269 268 270 271 272 278 277 276 285 268 251 230 244 129 48 191 245 276 271 277 315 308 257 212 202 210 216 232 240 247 231 201 254 260 245 252 251 255 255 258 266 261 273 316 265 285 298 298
273 262 260 264 270 273 272 270 269 264 266 272 269 287 275 257 251 244 244 243 260 228 254 258 269 310 318 288 232 195 171 198 213 224 233 223 198 209 245 259 261 258 261 266 256 251 251 251 253 276 279 274 286 293
266 266 258 256 262 270 276 266 264 258 256 253 274 276 267 252 231 249 248 226 224 221 241 217 230 278 325 327 282 216 195 218 206 220 230 197 212 220 238 257 261 249 238 248 248 254 251 240 241 240 247 246 265 283
255 256 258 254 258 264 260 263 269 241 240 250 267 241 211 202 222 210 196 188 210 212 228 237 225 238 327 333 315 315 211 238 233 218 199 225 245 249 256 259 267 265 256 248 248 258 253 228 215 207 216 222 254 268
256 252 249 251 249 249 247 249 229 232 240 250 200 221 194 181 174 197 216 194 187 226 223 235 228 249 247 225 256 255 287 272 259 211 218 242 254 252 261 260 265 270 255 245 240 245 266 228 196 197 205 219 241 249
256 251 245 241 239 237 239 237 214 222 223 189 209 178 177 187 187 198 203 194 206 236 198 213 224 212 223 210 216 248 255 248 250 145 233 253 274 286 287 291 288 279 254 237 224 225 240 221 211 206 215 226 233 237
251 243 238 231 229 231 236 221 214 223 237 253 217 178 186 164 204 208 187 194 203 199 199 202 204 194 195 203 223 247 247 237 274 242 245 293 338 342 323 311 312 301 253 197 190 207 201 195 196 207 222 232 235 235
240 233 226 230 216 215 231 217 210 209 200 222 212 184 202 195 225 205 212 174 188 211 206 203 214 199 201 190 225 245 242 277 250 234 246 351 340 331 333 316 307 284 229 182 183 181 182 183 190 207 226 229 216 220
235 233 217 201 211 224 225 210 208 208 186 202 222 233 220 222 217 176 226 237 234 216 296 248 253 223 208 242 221 261 250 240 244 294 6 326 332 339 315 280 254 202 171 164 161 161 163 168 182 219 227 221 194 189
187 194 220 210 213 215 209 204 205 215 182 194 222 246 234 253 240 241 247 254 268 224 229 260 242 244 227 223 208 215 250 245 2 324 314 319 331 331 305 263 198 173 162 154 146 148 155 164 230 236 217 195 185 186
184 207 208 209 201 187 192 197 192 203 238 209 224 223 240 250 245 229 240 250 242 212 202 203 238 225 273 232 204 225 251 349 329 317 318 319 322 310 283 228 158 149 167 158 159 162 161 161 168 173 184 183 184 185
206 204 197 181 184 179 183 187 195 214 227 234 219 224 216 231 247 255 261 257 231 195 186 221 235 229 248 260 264 318 315 314 313 315 312 310 311 285 238 169 147 165 170 158 158 150 136 126 131 152 172 178 178 181
207 205 194 197 175 171 171 189 215 263 224 233 248 245 239 247 252 256 254 254 249 243 225 197 230 223 229 243 261 273 293 292 309 317 321 319 296 208 173 163 147 158 166 146 116 105 113 121 134 153 158 167 170 170
200 203 201 201 179 171 189 206 192 227 238 236 243 250 245 248 261 250 247 242 235 224 217 217 227 239 239 250 263 282 291 294 314 322 330 309 217 155 158 139 126 128 116 110 108 108 118 130 144 151 152 160 164 165
204 202 195 194 209 213 225 195 208 232 246 244 257 235 251 251 243 230 243 234 219 225 236 236 242 249 255 268 273 277 280 276 305 298 303 305 258 217 200 102 67 94 99 103 101 101 127 128 128 145 151 147 155 165
199 201 201 210 223 205 235 218 223 236 228 246 256 241 237 252 246 224 197 190 219 226 227 232 242 251 263 264 274 278 286 280 283 298 303 327 248 238 234 191 87 104 111 123 116 109 132 128 126 141 150 147 152 154
193 201 198 182 189 204 239 209 227 223 245 247 230 242 233 234 231 162 199 218 232 241 241 247 259 262 261 271 270 267 259 280 273 311 305 307 293 229 209 189 153 136 140 144 133 127 141 132 136 144 153 147 146 144
180 164 177 192 199 218 220 224 220 244 249 248 257 262 245 240 167 214 241 214 225 225 222 239 256 269 266 264 258 261 248 231 250 281 287 277 247 208 196 190 168 142 130 146 143 135 150 139 130 133 139 145 151 151
150 176 185 205 205 228 228 222 212 230 247 220 246 258 254 209 235 238 238 353 134 155 303 311 299 280 279 281 289 292 253 235 241 255 265 240 207 188 181 179 178 160 137 142 150 149 155 149 144 139 134 139 142 145
193 193 198 196 195 216 220 253 229 216 238 239 239 271 274 253 252 273 53 352 322 293 294 290 272 267 264 263 293 299 242 227 224 237 246 233 220 220 207 194 183 176 166 152 155 166 164 163 151 147 149 155 148 149
227 205 214 213 226 243 261 254 263 260 256 260 240 271 282 287 296 352 316 314 301 307 306 281 290 256 250 264 286 297 251 253 227 222 230 231 233 229 235 235 186 174 185 162 155 165 173 172 162 161 151 149 153 160
244 251 223 178 216 230 264 285 269 269 255 242 274 346 2 313 282 274 307 326 340 17 50 72 186 221 223 266 305 281 228 203 188 207 228 217 204 217 222 200 171 175 179 158 147 154 175 170 167 163 153 152 155 154
238 228 200 241 230 235 217 218 247 246 272 247 283 257 192 255 306 324 333 2 46 46 76 99 93 64 59 3 176 201 219 212 207 218 213 200 183 179 175 169 161 166 174 160 147 150 157 172 175 166 159 157 154 152
246 186 233 251 232 224 236 204 244 289 307 300 285 293 283 323 9 349 31 50 43 35 39 49 66 65 57 51 37 253 230 230 235 244 242 233 240 205 184 168 168 174 175 167 158 153 150 153 164 163 158 153 150 152
184 196 245 240 264 262 279 290 287 283 287 292 298 278 58 60 337 11 48 45 44 42 32 32 36 35 36 26 16 3 338 274 256 238 237 228 219 206 190 177 171 173 177 172 164 163 161 158 159 159 159 154 157 157
213 217 236 263 273 300 310 294 288 283 294 312 337 13 136 235 142 44 36 34 34 32 26 21 21 19 18 16 6 343 320 292 249 228 226 209 192 192 190 180 172 173 175 170 169 166 167 167 168 168 166 162 159 161
226 248 250 272 285 295 334 341 358 338 321 11 38 70 82 58 54 50 35 30 32 30 21 11 4 1 360 357 5 359 24 43 112 174 171 165 160 155 176 181 171 172 175 172 171 168 166 168 169 174 174 173 172 171
Wind_Speed_850mb
44 42 40 39 39 38 37 35 34 33 32 32 29 29 26 19 16 23 17 17 22 22 48 50 46 41 28 15 9 15 18 3 6 6 5 4 4 4 8 9 15 8 8 6 4 7 9 5 11 14 19 30 34 36
45 44 42 41 40 38 36 34 33 33 32 30 28 27 26 23 18 21 21 21 23 36 36 45 58 66 59 54 44 17 11 8 8 4 2 1 6 6 7 8 4 7 10 8 8 8 14 25 19 20 23 26 30 27
45 45 44 43 41 40 38 36 34 32 31 30 27 26 23 19 15 17 21 24 24 26 54 34 21 14 25 22 26 19 12 17 15 14 1 2 10 4 7 11 10 8 9 11 12 11 14 21 30 32 29 25 25 20
48 46 46 45 43 41 39 38 35 34 32 29 27 25 24 20 12 16 25 21 24 16 14 17 16 18 4 17 36 50 37 35 31 7 8 7 7 16 8 14 19 23 22 19 26 40 43 38 37 24 20 25 25 16
49 48 47 46 44 42 41 39 37 35 32 29 26 24 21 19 13 19 29 35 35 26 9 29 65 69 40 23 38 62 56 42 42 13 11 8 8 6 14 10 25 42 22 11 10 18 17 30 32 22 19 22 22 20
44 44 44 44 43 42 39 39 38 35 32 29 26 23 22 13 12 13 11 6 19 43 13 7 23 50 47 27 24 39 46 35 30 18 15 15 27 10 8 11 19 33 37 40 28 17 26 29 28 21 25 24 24 18
44 44 43 40 41 41 40 38 36 33 31 26 22 19 19 12 17 19 9 1 8 27 11 9 14 11 26 17 7 10 28 21 24 16 18 32 22 21 7 37 28 32 38 43 39 34 33 38 20 13 23 24 24 18
40 41 42 41 39 35 34 33 31 28 26 24 20 20 22 21 26 35 38 32 21 10 10 6 10 19 11 6 5 10 12 20 19 15 10 10 11 17 13 56 44 44 48 52 52 52 59 48 35 25 29 26 20 12
45 38 37 38 39 37 34 27 28 28 21 19 19 23 23 24 21 29 20 24 29 25 8 10 6 7 12 6 6 5 12 8 13 12 10 12 13 15 38 61 45 47 34 27 14 20 30 44 51 36 36 27 20 14
51 47 43 43 42 37 28 22 23 20 20 18 21 15 13 14 22 11 11 15 18 19 19 12 18 12 10 15 10 12 10 7 6 14 10 9 18 63 79 74 75 65 52 47 33 28 24 30 36 39 40 26 19 19
50 54 48 44 38 34 28 26 23 18 19 19 18 14 14 18 19 10 11 14 16 7 13 11 24 19 12 9 7 10 7 6 6 7 8 8 12 31 54 63 73 79 67 60 56 48 30 24 33 38 32 24 19 20
50 50 47 44 43 26 30 30 28 27 18 13 8 16 20 14 11 7 7 8 8 8 9 9 14 15 10 15 12 9 7 6 12 6 6 8 15 39 51 56 52 52 46 48 49 41 38 34 32 31 25 21 19 22
47 44 41 40 35 21 26 29 33 29 23 16 11 14 12 11 12 11 16 8 8 11 12 13 9 11 12 13 10 7 9 11 5 7 8 9 34 50 63 53 47 26 23 30 37 40 33 30 27 22 19 21 20 21
38 39 45 39 31 26 29 33 32 25 18 9 8 10 8 9 9 10 10 5 9 8 9 16 7 11 10 9 5 8 9 7 8 9 11 13 56 70 58 32 25 14 15 29 46 42 36 28 21 18 18 17 18 13
34 34 29 22 21 27 30 33 29 25 16 8 6 8 12 13 3 3 5 9 8 6 1 5 9 10 7 6 7 7 7 11 9 8 9 44 57 73 57 34 15 8 25 36 39 36 28 20 14 12 18 18 19 18
13 9 18 17 23 26 28 33 28 26 13 12 12 8 8 6 17 18 22 23 11 21 11 5 5 5 12 7 11 14 8 10 4 9 37 45 60 67 57 24 25 37 33 35 30 22 16 10 5 8 11 16 24 22
18 16 13 19 22 23 29 31 21 12 9 10 10 21 16 12 16 14 14 17 23 16 6 4 7 14 5 8 10 8 8 7 26 43 50 52 71 65 40 17 27 34 26 23 22 14 9 5 3 6 9 13 22 25
21 17 17 21 24 33 28 23 13 14 13 15 10 25 26 26 27 29 34 35 28 19 14 8 9 7 9 10 11 7 13 33 41 42 55 66 58 30 12 8 15 17 17 13 10 7 5 6 9 11 12 13 17 23
22 21 22 23 32 33 17 20 15 7 19 12 22 30 24 27 39 46 35 33 38 35 12 11 11 9 12 18 25 34 32 30 39 54 65 38 15 13 13 11 8 7 10 7 6 9 12 11 11 12 13 13 16 22
23 21 18 15 29 15 9 9 15 10 11 14 19 20 18 24 30 29 34 33 29 17 14 11 14 32 32 35 39 45 48 37 38 54 50 18 8 7 5 3 6 9 12 13 12 11 12 12 12 13 13 13 18 22
23 23 20 20 25 18 6 10 11 11 9 12 13 17 14 20 28 31 34 31 29 14 17 35 41 53 57 61 66 67 52 39 42 31 38 37 17 8 4 5 8 10 11 10 11 12 13 15 12 13 14 14 16 18
20 24 20 29 9 14 10 15 10 6 9 13 13 17 14 13 19 17 18 20 14 32 42 54 66 62 52 52 60 53 42 33 28 40 33 27 22 15 10 3 5 8 10 12 13 12 21 18 12 13 16 18 18 19
20 21 12 11 9 12 4 9 8 8 6 7 5 6 7 8 7 18 12 16 22 35 44 46 52 48 49 48 38 37 27 27 23 26 23 28 23 16 12 11 6 9 15 17 17 18 27 17 16 18 21 21 23 25
13 12 7 8 8 4 5 8 9 8 8 6 5 7 6 6 13 10 8 10 15 13 15 15 16 22 28 29 32 34 36 37 28 29 28 27 20 20 12 10 9 9 12 20 22 21 28 20 19 21 23 25 26 27
8 9 8 6 8 6 7 6 8 6 7 9 6 8 5 4 5 6 5 1 3 4 5 14 19 21 21 21 20 18 15 23 30 25 22 22 22 24 22 19 15 12 13 21 26 27 27 23 20 24 23 27 29 29
4 12 11 13 8 8 7 5 6 9 6 6 8 8 4 4 6 4 3 11 14 23 34 31 23 20 20 17 16 13 9 13 21 19 20 22 23 22 23 25 21 16 17 13 21 29 29 24 24 25 24 26 27 31
4 8 9 12 7 7 8 13 13 7 6 4 3 3 4 5 5 5 21 53 46 38 25 20 20 17 20 11 9 9 8 8 17 24 20 21 23 23 23 21 13 7 16 14 18 26 32 30 29 31 28 30 29 33
8 5 7 5 10 12 6 4 4 4 5 4 3 3 3 3 5 11 38 54 53 20 7 6 7 11 6 5 7 6 7 7 6 12 15 17 18 18 19 17 13 13 19 15 16 23 35 37 36 33 32 32 32 34
7 6 8 8 10 9 11 8 7 8 5 3 3 2 5 5 13 34 56 38 32 28 21 10 13 12 7 2 2 6 8 13 10 8 7 13 19 18 22 25 25 26 27 23 19 22 29 36 40 35 33 36 36 40
4 11 5 6 6 7 9 20 11 13 15 11 8 7 2 10 18 38 40 42 45 42 36 31 28 22 22 18 11 2 9 8 11 15 16 14 10 19 29 35 31 33 38 35 31 32 32 33 39 42 41 42 40 45
5 12 7 8 7 12 14 14 15 15 16 12 13 9 3 6 27 25 32 35 41 44 38 31 24 21 18 18 22 17 9 9 14 17 13 18 14 14 29 41 39 40 42 41 36 35 41 42 42 45 43 41 41 41
9 11 5 4 6 11 16 5 6 6 8 6 6 0 7 5 2 8 31 34 40 48 48 41 28 23 22 24 19 17 21 17 14 27 28 23 25 24 34 43 41 47 43 43 39 36 39 40 43 44 45 45 46 42
8 9 7 7 6 5 6 8 4 7 3 5 7 6 5 5 8 7 23 29 34 40 44 43 32 26 22 18 32 22 25 21 8 17 26 28 25 27 33 48 45 51 45 45 43 39 38 37 36 42 44 46 45 42
Wind_Direction_850mb
281 283 285 289 292 295 295 296 294 295 299 303 308 309 308 302 265 249 246 239 253 253 268 273 268 269 264 260 264 316 329 223 298 4 340 4 264 328 288 280 291 284 304 280 256 258 282 31 340 359 314 308 328 337
280 281 284 285 287 289 292 291 288 289 294 297 302 304 303 303 291 259 252 261 252 258 263 273 278 275 264 260 270 262 242 315 291 280 228 285 260 247 273 287 196 260 230 293 264 270 313 297 277 297 290 290 317 328
276 278 279 280 281 283 284 286 285 286 288 292 294 295 297 300 300 277 258 240 267 286 289 271 273 292 278 241 252 228 223 228 238 235 293 272 248 176 245 247 264 257 254 251 296 252 283 295 288 293 286 282 304 326
273 274 276 277 278 278 279 279 280 281 283 286 286 287 290 294 290 270 269 262 230 263 275 292 304 263 298 292 254 227 248 267 243 245 262 221 227 213 236 261 256 268 298 264 271 286 289 283 266 273 265 287 298 322
270 271 271 273 275 275 274 274 275 278 282 283 284 284 287 298 289 272 269 262 232 218 284 297 294 288 284 271 267 250 258 241 235 248 232 232 228 249 248 255 256 245 239 215 249 260 281 287 296 281 271 286 296 313
268 267 267 271 273 273 271 272 273 275 278 280 282 275 282 295 283 296 298 339 240 214 254 274 291 287 296 285 260 252 241 217 206 204 239 238 237 222 261 265 236 222 229 237 248 257 294 281 295 273 277 287 301 308
268 266 268 267 267 270 269 268 270 271 272 278 277 276 285 268 251 230 244 129 48 191 245 276 271 277 315 308 257 212 202 210 216 232 240 247 231 201 254 260 245 252 251 255 255 258 266 261 273 316 265 285 298 298
273 262 260 264 270 273 272 270 269 264 266 272 269 287 275 257 251 244 244 243 260 228 254 258 269 310 318 288 232 195 171 198 213 224 233 223 198 209 245 259 261 258 261 266 256 251 251 251 253 276 279 274 286 293
266 266 258 256 262 270 276 266 264 258 256 253 274 276 267 252 231 249 248 226 224 221 241 217 230 278 325 327 282 216 195 218 206 220 230 197 212 220 238 257 261 249 238 248 248 254 251 240 241 240 247 246 265 283
255 256 258 254 258 264 260 263 269 241 240 250 267 241 211 202 222 210 196 188 210 212 228 237 225 238 327 333 315 315 211 238 233 218 199 225 245 249 256 259 267 265 256 248 248 258 253 228 215 207 216 222 254 268
256 252 249 251 249 249 247 249 229 232 240 250 200 221 194 181 174 197 216 194 187 226 223 235 228 249 247 225 256 255 287 272 259 211 218 242 254 252 261 260 265 270 255 245 240 245 266 228 196 197 205 219 241 249
256 251 245 241 239 237 239 237 214 222 223 189 209 178 177 187 187 198 203 194 206 236 198 213 224 212 223 210 216 248 255 248 250 145 233 253 274 286 287 291 288 279 254 237 224 225 240 221 211 206 215 226 233 237
251 243 238 231 229 231 236 221 214 223 237 253 217 178 186 164 204 208 187 194 203 199 199 202 204 194 195 203 223 247 247 237 274 242 245 293 338 342 323 311 312 301 253 197 190 207 201 195 196 207 222 232 235 235
240 233 226 230 216 215 231 217 210 209 200 222 212 184 202 195 225 205 212 174 188 211 206 203 214 199 201 190 225 245 242 277 250 234 246 351 340 331 333 316 307 284 229 182 183 181 182 183 190 207 226 229 216 220
235 233 217 201 211 224 225 210 208 208 186 202 222 233 220 222 217 176 226 237 234 216 296 248 253 223 208 242 221 261 250 240 244 294 6 326 332 339 315 280 254 202 171 164 161 161 163 168 182 219 227 221 194 189
187 194 220 210 213 215 209 204 205 215 182 194 222 246 234 253 240 241 247 254 268 224 229 260 242 244 227 223 208 215 250 245 2 324 314 319 331 331 305 263 198 173 162 154 146 148 155 164 230 236 217 195 185 186
184 207 208 209 201 187 192 197 192 203 238 209 224 223 240 250 245 229 240 250 242 212 202 203 238 225 273 232 204 225 251 349 329 317 318 319 322 310 283 228 158 149 167 158 159 162 161 161 168 173 184 183 184 185
206 204 197 181 184 179 183 187 195 214 227 234 219 224 216 231 247 255 261 257 231 195 186 221 235 229 248 260 264 318 315 314 313 315 312 310 311 285 238 169 147 165 170 158 158 150 136 126 131 152 172 178 178 181
207 205 194 197 175 171 171 189 215 263 224 233 248 245 239 247 252 256 254 254 249 243 225 197 230 223 229 243 261 273 293 292 309 317 321 319 296 208 173 163 147 158 166 146 116 105 113 121 134 153 158 167 170 170
200 203 201 201 179 171 189 206 192 227 238 236 243 250 245 248 261 250 247 242 235 224 217 217 227 239 239 250 263 282 291 294 314 322 330 309 217 155 158 139 126 128 116 110 108 108 118 130 144 151 152 160 164 165
204 202 195 194 209 213 225 195 208 232 246 244 257 235 251 251 243 230 243 234 219 225 236 236 242 249 255 268 273 277 280 276 305 298 303 305 258 217 200 102 67 94 99 103 101 101 127 128 128 145 151 147 155 165
199 201 201 210 223 205 235 218 223 236 228 246 256 241 237 252 246 224 197 190 219 226 227 232 242 251 263 264 274 278 286 280 283 298 303 327 248 238 234 191 87 104 111 123 116 109 132 128 126 141 150 147 152 154
193 201 198 182 189 204 239 209 227 223 245 247 230 242 233 234 231 162 199 218 232 241 241 247 259 262 261 271 270 267 259 280 273 311 305 307 293 229 209 189 153 136 140 144 133 127 141 132 136 144 153 147 146 144
180 164 177 192 199 218 220 224 220 244 249 248 257 262 245 240 167 214 241 214 225 225 222 239 256 269 266 264 258 261 248 231 250 281 287 277 247 208 196 190 168 142 130 146 143 135 150 139 130 133 139 145 151 151
150 176 185 205 205 228 228 222 212 230 247 220 246 258 254 209 235 238 238 353 134 155 303 311 299 280 279 281 289 292 253 235 241 255 265 240 207 188 181 179 178 160 137 142 150 149 155 149 144 139 134 139 142 145
193 193 198 196 195 216 220 253 229 216 238 239 239 271 274 253 252 273 53 352 322 293 294 290 272 267 264 263 293 299 242 227 224 237 246 233 220 220 207 194 183 176 166 152 155 166 164 163 151 147 149 155 148 149
227 205 214 213 226 243 261 254 263 260 256 260 240 271 282 287 296 352 316 314 301 307 306 281 290 256 250 264 286 297 251 253 227 222 230 231 233 229 235 235 186 174 185 162 155 165 173 172 162 161 151 149 153 160
244 251 223 178 216 230 264 285 269 269 255 242 274 346 2 313 282 274 307 326 340 17 50 72 186 221 223 266 305 281 228 203 188 207 228 217 204 217 222 200 171 175 179 158 147 154 175 170 167 163 153 152 155 154
238 228 200 241 230 235 217 218 247 246 272 247 283 257 192 255 306 324 333 2 46 46 76 99 93 64 59 3 176 201 219 212 207 218 213 200 183 179 175 169 161 166 174 160 147 150 157 172 175 166 159 157 154 152
246 186 233 251 232 224 236 204 244 289 307 300 285 293 283 323 9 349 31 50 43 35 39 49 66 65 57 51 37 253 230 230 235 244 242 233 240 205 184 168 168 174 175 167 158 153 150 153 164 163 158 153 150 152
184 196 245 240 264 262 279 290 287 283 287 292 298 278 58 60 337 11 48 45 44 42 32 32 36 35 36 26 16 3 338 274 256 238 237 228 219 206 190 177 171 173 177 172 164 163 161 158 159 159 159 154 157 157
213 217 236 263 273 300 310 294 288 283 294 312 337 13 136 235 142 44 36 34 34 32 26 21 21 19 18 16 6 343 320 292 249 228 226 209 192 192 190 180 172 173 175 170 169 166 167 167 168 168 166 162 159 161
226 248 250 272 285 295 334 341 358 338 321 11 38 70 82 58 54 50 35 30 32 30 21 11 4 1 360 357 5 359 24 43 112 174 171 165 160 155 176 181 171 172 175 172 171 168 166 168 169 174 174 173 172 171